Flag for U.S.A. Weather past 2 weeks in Vista, California, U.S.A.

Now
68 °F

Overcast.


Feels Like: 68 °F
Forecast: 62 / 72 °F
Wind: 5 mph from Northwest

Location: McClellan-Palomar Airport

Current Time: Jul 7, 2015 at 3:04:51 PM

Latest Report: Jul 7, 2015 at 1:53 PM


Visibility: 10 mi

Pressure: 29.93 "Hg

Humidity: 78%

Dew point: 61 °F

Location of VistaLocation

Historic Weather in Vista — Graph

°F

Vista temperature yesterday

Maximum temperature yesterday: 69 °F (at 1:53 PM)
Minimum temperature yesterday: 64 °F (at 6:53 AM)
Average temperature yesterday: 66 °F

Past Weeks' High & Low Weather Summary

 TemperatureHumidityPressure
High86 °F (Jun 30, 5:53 PM)97% (Jun 23, 4:53 AM)30.05 "Hg (Jun 23, 4:53 AM)
Low62 °F (Jun 24, 6:53 AM)60% (Jun 23, 11:53 AM)29.79 "Hg (Jun 30, 5:53 PM)
Average68 °F82%29.92 "Hg
* Reported Jun 22 12:53 PM — Jul 7 12:53 PM, Vista, Weather by CustomWeather, © 2015

Note: Actual official high and low records may vary slightly from our data, if they occured in-between our weather recording intervals... More about our weather records

Advertising

Vista weather history for previous 24 hours

 ConditionsComfort  
Time TempWeatherWind HumidityBarometerVisibility
12:53 PM
Tue, Jul 7
65 °FLow clouds.6 mph87%29.96 "Hg9 mi
11:53 AM64 °FFog.5 mph94%29.98 "Hg3 mi
10:53 AM64 °FFog.6 mph97%29.98 "Hg2 mi
9:53 AM64 °FFog.6 mph94%29.97 "Hg2 mi
9:00 AM64 °FFog.5 mph94%29.99 "Hg6 mi
7:53 AM64 °FFog.5 mph94%29.99 "Hg3 mi
6:53 AM64 °FFog.5 mph94%29.98 "Hg5 mi
5:53 AM64 °FFog.No wind94%29.96 "Hg5 mi
4:53 AM64 °FFog.3 mph94%29.96 "Hg4 mi
3:53 AM65 °FOvercast.5 mph87%29.96 "Hg9 mi
2:53 AM66 °FOvercast.No wind81%29.96 "Hg10 mi
1:53 AM66 °FOvercast.No wind81%29.98 "Hg10 mi
12:53 AM65 °FOvercast.No wind85%29.98 "Hg10 mi
11:53 PM
Mon, Jul 6
65 °FOvercast.No wind85%29.99 "Hg10 mi
10:53 PM65 °FOvercast.No wind85%30.00 "Hg9 mi
9:53 PM65 °FOvercast.No wind85%29.99 "Hg10 mi
8:53 PM66 °FOvercast.6 mph81%29.98 "Hg10 mi
7:53 PM66 °FOvercast.5 mph81%29.97 "Hg10 mi
6:53 PM67 °FOvercast.6 mph79%29.96 "Hg10 mi
5:53 PM67 °FOvercast.9 mph79%29.96 "Hg10 mi
4:53 PM68 °FOvercast.8 mph78%29.96 "Hg10 mi
3:53 PM68 °FOvercast.8 mph76%29.98 "Hg10 mi
Weather by CustomWeather, © 2015

See weather overviewHow to use our weather pages